Regional Weather Roundup
Issued by NWS

Home | Current Version | Previous Version | Text Only | Print | Product List | Glossary On
Versions: 1 2 3 4 5 6 7 8 9 10 11 12 13 14 15 16 17 18 19 20 21 22 23 24 25 26 27 28 29 30 31 32 33 34 35 36 37 38 39 40 41 42 43 44 45 46 47 48 49 50
118
ASUS43 KMPX 292301
RWRMN
WEATHER ROUNDUP FOR MINNESOTA
NATIONAL WEATHER SERVICE TWIN CITIES/CHANHASSEN MN
600 PM CDT FRI JUL 29 2016


NOTE: "FAIR" INDICATES FEW OR NO CLOUDS BELOW 12,000 FEET WITH NO
SIGNIFICANT WEATHER AND/OR OBSTRUCTIONS TO VISIBILITY. N/A MEANS
CURRENT SKY AND/OR WEATHER CONDITIONS ARE NOT AVAILABLE.

MNZ060>063-068>070-300000-
   Twin Cities Metro

CITY           SKY/WX    TMP DP  RH WIND       PRES   REMARKS
TWIN CITIES    MOSUNNY   78  51  38 N9        30.03S
ST PAUL        SUNNY     77  53  43 NE8       30.03S
CRYSTAL        SUNNY     77  50  38 NE6       30.02S
BLAINE         MOSUNNY   79  54  41 N8        30.03F
LAKEVILLE      SUNNY     75  52  43 E7        30.03S
EDEN PRAIRIE   SUNNY     80  51  36 NE8       30.02S
LAKEVILLE      SUNNY     75  52  43 E7        30.03S
SOUTH ST PAUL  SUNNY     78  49  37 NE8       30.02S
LAKE ELMO      FAIR      75  54  46 N6        30.04S
$$
MNZ001>005-007-008-013>017-022>024-027-028-300000-
   Northwest Minnesota

CITY           SKY/WX    TMP DP  RH WIND       PRES   REMARKS
BEMIDJI        MOSUNNY   77  59  54 SE6       30.03F
HALLOCK        SUNNY     79  55  44 W3        30.00S
ROSEAU         SUNNY     79  61  53 CALM      30.01F
WARROAD        MOSUNNY   75  63  64 E7        30.02F
THIEF RVR FALL MOSUNNY   77  54  44 S5        30.03F
CROOKSTON      MOSUNNY   75  55  50 W5        30.02F
FOSSTON        MOSUNNY   79  52  38 CALM      30.03F
DETROIT LAKES  CLOUDY    77  59  53 N3        30.05S
MOORHEAD       PTSUNNY   77  61  57 N5        30.02F
PARK RAPIDS    MOSUNNY   78  57  48 SE12      30.03F
MAHNOMEN       FAIR      77  54  45 CALM      30.02F
$$
MNZ006-009>011-018-025>026-300000-
   North Central Minnesota

CITY           SKY/WX    TMP DP  RH WIND       PRES   REMARKS
BAUDETTE       PTSUNNY   79  56  45 VRB3      30.01F
FLAG ISLAND    SUNNY     75  52  43 SE5       30.01F
INTL FALLS     CLOUDY    75  59  57 CALM      30.03F
WASKISH        SUNNY     79  57  47 W6        30.03S
BIG FORK       SUNNY     79  55  44 S3        30.05S
LONGVILLE      MOSUNNY   77  54  44 CALM      30.04F
GRAND RAPIDS   SUNNY     74  57  55 CALM      30.07F
CRANE LAKE     SUNNY     75  48  38 S3        30.06F
ORR            MOSUNNY   75  52  43 CALM      30.02F
COOK           MOSUNNY   70  61  73 CALM      30.06F
WALKER         MOCLDY    75  57  53 S7        30.03F
$$
MNZ012-019>021-037-300000-
   Northeast Minnesota

CITY           SKY/WX    TMP DP  RH WIND       PRES   REMARKS
DULUTH         MOSUNNY   71  52  50 SE9       30.07F
ELY            CLOUDY    75  48  38 CALM      30.06S
HIBBING        MOSUNNY   75  51  43 SE5       30.05F
EVELETH        SUNNY     76  49  39 S3        30.07F
DULUTH HARBOR  SUNNY     70  63  78 E5        30.07S
TWO HARBORS    SUNNY     75  55  50 E3        30.06F
SILVER BAY     SUNNY     73  52  46 E3        30.06F
GRAND MARAIS     N/A     67  56  67 SW3       30.07F
G MARAIS ARPRT SUNNY     66  45  45 S6        30.12S
$$
MNZ029>031-032-039>041-046>048-054>057-064-300000-
   West Central Minnesota

CITY           SKY/WX    TMP DP  RH WIND       PRES   REMARKS
FERGUS FALLS   MOSUNNY   70  66  88 S7        30.05F
WHEATON        MOSUNNY   79  64  61 S5        30.04F
MORRIS         MOSUNNY   79  57  47 SW6       30.03F
ALEXANDRIA     CLOUDY    74  56  53 W5        30.07S
ELBOW LAKE     CLOUDY    72  63  74 N7        30.05S
WADENA         PTSUNNY   72  61  68 S5        30.04F
GLENWOOD       MOSUNNY   75  57  53 W3        30.06F
APPLETON       MOSUNNY   79  54  41 CALM      30.03F
BENSON         CLOUDY    79  54  41 CALM      30.04F
ORTONVILLE     MOSUNNY   79  57  47 SE6       30.03F
MADISON        SUNNY     79  54  41 CALM      30.04F
WILLMAR        FAIR      75  57  53 E3        30.06S
$$
MNZ033>034-036-042>043-049>051-058-059-300000-
   Central Minnesota

CITY           SKY/WX    TMP DP  RH WIND       PRES   REMARKS
ST CLOUD       SUNNY     77  55  46 NE6       30.04S
SAUK CENTRE    FAIR      74  56  53 E3        30.06S
PAYNESVILLE    SUNNY     74  54  49 N3        30.05F
AITKIN         SUNNY     79  46  31 CALM      30.03F
PINE RIVER     MOSUNNY   75  57  53 SE3       30.07F
BRAINERD       SUNNY     77  51  40 CALM      30.05F
STAPLES        MOSUNNY   75  55  50 SE5       30.04F
LONG PRAIRIE   PTSUNNY   73  55  53 CALM      30.06S
LITTLE FALLS   SUNNY     73  52  46 E3        30.05F
LITCHFIELD     SUNNY     75  55  50 NE5       30.05F
BUFFALO        SUNNY     76  51  40 N7        30.05S
MAPLE LAKE     SUNNY     77  57  50 NE7       30.05F
HUTCHINSON     SUNNY     77  56  48 N7        30.05F
$$
MNZ037-044-045-052-053-300000-
   East Central Minnesota

CITY           SKY/WX    TMP DP  RH WIND       PRES   REMARKS
PRINCETON      SUNNY     79  54  41 N7        30.04F
MORA           SUNNY     73  50  43 NE6       30.06F
CAMBRIDGE      SUNNY     79  57  47 NE6       30.03S
RUSH CITY      SUNNY     75  55  50 NE6       30.04F
MOOSE LAKE     SUNNY     73  46  38 E3        30.04S
HINCKLEY       FAIR      77  55  47 NE3       30.05S
CLOQUET        SUNNY     72  48  43 E9        30.07S
MCGREGOR       SUNNY     77  52  41 E7        30.05F
$$
MNZ071>073-080-081-089-090-097-098-300000-
   Southwest Minnesota

CITY           SKY/WX    TMP DP  RH WIND       PRES   REMARKS
MONTEVIDEO     CLOUDY    79  57  47 CALM      30.06F
GRANITE FALLS  MOSUNNY   79  56  44 NE6       30.06S
CANBY          SUNNY     79  54  42 CALM      30.05F
MARSHALL       MOSUNNY   77  56  48 E8        30.04F
REDWOOD FALLS  MOSUNNY   77  54  44 NE5       30.04S
OLIVIA         CLOUDY    77  54  44 NE6       30.04F
PIPESTONE      MOSUNNY   77  50  38 E7        30.06S
WINDOM         SUNNY     73  54  49 NE7       30.05S
WORTHINGTON    MOSUNNY   75  56  51 NE9       30.06S
JACKSON        SUNNY     73  54  49 NE8       30.05F
TRACY          CLOUDY    75  59  55 NE7       30.05F
SLAYTON        MOSUNNY   75  55  50 NE8       30.07S
$$
MNZ065>067-074>077-082>085-091>093-300000-
   South Central Minnesota

CITY           SKY/WX    TMP DP  RH WIND       PRES   REMARKS
MANKATO        SUNNY     75  54  46 N12       30.03S
NEW ULM        SUNNY     75  54  46 N7        30.04R
ST JAMES       SUNNY     72  52  49 N7        30.04F
FAIRMONT       PTSUNNY   75  57  53 N6        30.02F
GLENCOE        SUNNY     76  58  52 NE5       30.03F
FARIBAULT      SUNNY     75  55  50 N5        30.03F
OWATONNA       MOSUNNY   75  54  46 N7        30.03S
WASECA         PTSUNNY   73  55  53 N9        30.04S
ALBERT LEA     PTSUNNY   73  61  64 NE6       30.03S
$$
MNZ078>079-086>088-094>096-300000-
   Southeast Minnesota

CITY           SKY/WX    TMP DP  RH WIND       PRES   REMARKS
ROCHESTER      PTSUNNY   74  61  63 NE10      30.03R
RED WING       MOSUNNY   79  48  34 NE3       30.01S
STANTON        SUNNY     77  52  41 NE6       30.01S
DODGE CENTER   CLOUDY    73  59  60 NE6       30.04R
WINONA         PTSUNNY   77  61  57 NE7       30.00S
AUSTIN         CLOUDY    73  61  64 NE5       30.02S
PRESTON        CLOUDY    71  63  74 N3        30.03R
$$
ABBREVIATIONS USED IN REMARKS
   TC - TEMPERATURES IN CELSIUS
  WCI - WIND CHILL INDEX
   HX - HEAT INDEX
  VSB - VISIBILITY
$$




USA.gov is the U.S. government's official web portal to all federal, state and local government web resources and services.